Temp
-7 -7 -7 -7 -7 -7 -7 -6 -6 -6 -6 -6 -6 -6 -6 -5 -5 -5 -5 -6 -6 -6 -6 -6 -6 -6 -6 -6 -6 -6 -6 -6 -6 -5 -6 -6 -6 -6 -6 -6 -5 -5 -5
-7 -7 -7 -7 -7 -7 -8 -7 -7 -7 -7 -6 -6 -6 -6 -6 -6 -6 -6 -6 -6 -6 -6 -7 -7 -7 -7 -6 -6 -6 -6 -6 -6 -6 -5 -6 -6 -5 -5 -5 -6 -6 -5
-7 -7 -7 -7 -6 -7 -8 -8 -7 -6 -6 -6 -6 -6 -6 -6 -6 -6 -6 -6 -6 -6 -6 -6 -6 -7 -6 -6 -6 -6 -6 -6 -6 -6 -6 -6 -6 -6 -6 -6 -6 -5 -5
-7 -6 -7 -7 -7 -7 -7 -7 -7 -7 -7 -7 -7 -6 -7 -6 -6 -6 -6 -6 -6 -6 -6 -6 -6 -6 -6 -6 -6 -6 -6 -6 -6 -6 -6 -6 -6 -6 -6 -6 -6 -6 -6
-7 -7 -7 -7 -7 -7 -7 -7 -7 -7 -7 -7 -7 -7 -6 -7 -7 -7 -6 -6 -6 -7 -6 -6 -6 -6 -6 -6 -6 -6 -6 -6 -6 -6 -6 -6 -6 -6 -6 -6 -6 -6 -5
-7 -7 -7 -6 -7 -7 -7 -7 -8 -8 -7 -7 -7 -7 -7 -7 -7 -6 -6 -6 -6 -6 -6 -6 -5 -5 -5 -5 -6 -6 -6 -6 -6 -6 -6 -6 -6 -6 -6 -6 -6 -6 -7
-5 -6 -6 -7 -6 -6 -6 -6 -7 -8 -7 -7 -7 -7 -6 -6 -6 -6 -6 -6 -6 -7 -6 -6 -5 -6 -6 -5 -5 -6 -6 -6 -6 -6 -6 -6 -6 -6 -6 -6 -6 -6 -6
-6 -6 -6 -6 -6 -7 -7 -6 -7 -7 -7 -6 -7 -7 -7 -6 -6 -6 -6 -6 -6 -6 -6 -6 -6 -6 -6 -6 -6 -6 -5 -6 -6 -6 -6 -6 -5 -7 -6 -6 -6 -6 -6
-6 -6 -6 -6 -6 -7 -7 -6 -6 -6 -7 -7 -7 -6 -6 -6 -6 -6 -6 -6 -6 -6 -6 -6 -6 -6 -6 -5 -5 -6 -6 -6 -6 -6 -6 -7 -6 -6 -6 -6 -6 -6 -6
-7 -7 -7 -6 -6 -7 -7 -6 -6 -6 -6 -6 -7 -7 -7 -6 -6 -6 -6 -6 -6 -6 -6 -6 -6 -6 -6 -6 -6 -6 -6 -6 -7 -7 -7 -7 -7 -7 -8 -7 -7 -8 -8
-7 -6 -6 -6 -6 -6 -6 -6 -7 -7 -7 -6 -6 -6 -6 -7 -7 -6 -6 -6 -7 -7 -7 -7 -7 -6 -6 -6 -6 -7 -7 -7 -7 -7 -8 -8 -8 -8 -7 -8 -8 -8 -8
-6 -7 -6 -7 -7 -6 -6 -6 -6 -7 -7 -7 -6 -6 -6 -6 -7 -7 -6 -6 -7 -7 -7 -7 -7 -6 -7 -7 -7 -8 -8 -8 -8 -8 -8 -8 -9 -9 -8 -10 -10 -10 -10
-6 -6 -6 -6 -6 -6 -6 -6 -7 -7 -7 -7 -7 -7 -7 -6 -7 -7 -7 -8 -8 -8 -8 -8 -8 -8 -8 -8 -9 -9 -9 -9 -9 -9 -10 -10 -11 -11 -10 -10 -10 -10 -11
-8 -6 -6 -7 -7 -7 -6 -7 -6 -7 -7 -7 -7 -7 -7 -7 -8 -7 -8 -8 -8 -9 -9 -9 -9 -9 -10 -10 -11 -11 -10 -11 -10 -10 -10 -10 -10 -10 -10 -11 -11 -11 -11
-9 -8 -8 -8 -8 -7 -7 -7 -7 -7 -8 -9 -9 -9 -9 -9 -10 -10 -9 -10 -10 -10 -11 -11 -11 -11 -11 -11 -11 -10 -11 -10 -10 -11 -11 -11 -10 -10 -10 -11 -12 -12 -12
-9 -9 -9 -9 -10 -9 -9 -9 -9 -9 -10 -11 -11 -11 -12 -12 -12 -11 -11 -11 -11 -11 -11 -11 -11 -10 -10 -11 -11 -11 -11 -11 -11 -12 -12 -12 -12 -12 -12 -12 -12 -13 -13
-10 -10 -10 -11 -11 -12 -12 -12 -12 -12 -11 -11 -11 -10 -10 -10 -10 -10 -10 -10 -10 -11 -11 -11 -11 -11 -11 -12 -12 -12 -12 -12 -12 -12 -12 -12 -12 -13 -13 -13 -13 -13 -13
-12 -12 -12 -12 -12 -12 -11 -11 -11 -11 -10 -10 -10 -10 -10 -11 -11 -11 -11 -11 -11 -11 -11 -11 -11 -11 -12 -12 -12 -12 -12 -12 -12 -12 -12 -12 -12 -13 -13 -14 -14 -15 -15
-12 -12 -12 -12 -12 -11 -11 -10 -11 -11 -11 -11 -11 -11 -11 -11 -11 -12 -12 -12 -11 -11 -11 -11 -12 -12 -12 -12 -12 -12 -12 -12 -12 -12 -12 -13 -14 -15 -16 -16 -16 -16 -16
-12 -12 -12 -12 -12 -12 -11 -11 -12 -12 -12 -12 -12 -12 -12 -12 -12 -12 -12 -12 -12 -12 -12 -12 -12 -12 -13 -13 -13 -13 -13 -13 -13 -14 -15 -16 -16 -16 -16 -17 -17 -17 -17
-12 -13 -13 -13 -12 -12 -12 -12 -12 -12 -12 -12 -12 -12 -12 -12 -12 -12 -12 -12 -12 -12 -12 -13 -13 -13 -13 -13 -13 -14 -14 -14 -15 -16 -17 -17 -17 -17 -17 -17 -17 -18 -20
-13 -13 -13 -13 -13 -12 -12 -12 -12 -12 -12 -12 -12 -12 -12 -12 -12 -12 -12 -12 -12 -12 -12 -12 -13 -13 -13 -13 -14 -15 -16 -17 -17 -17 -17 -17 -17 -18 -20 -20 -22 -23 -22
-13 -13 -13 -13 -12 -12 -12 -12 -12 -12 -12 -12 -12 -12 -12 -12 -12 -12 -12 -12 -12 -12 -13 -14 -14 -14 -15 -15 -16 -17 -17 -18 -18 -18 -18 -19 -20 -20 -21 -22 -22 -22 -23
-13 -13 -13 -13 -13 -13 -13 -12 -12 -12 -12 -12 -12 -12 -12 -12 -12 -12 -13 -13 -13 -13 -14 -15 -15 -15 -16 -17 -18 -18 -18 -18 -19 -19 -19 -20 -20 -20 -21 -22 -23 -23 -22
-13 -13 -13 -13 -13 -13 -13 -13 -13 -13 -13 -12 -13 -13 -13 -13 -13 -13 -13 -14 -14 -14 -15 -15 -16 -16 -17 -18 -19 -19 -19 -19 -19 -19 -20 -20 -20 -21 -21 -22 -22 -23 -23
-13 -13 -13 -13 -13 -13 -13 -13 -13 -13 -13 -13 -13 -13 -13 -13 -14 -14 -14 -14 -15 -15 -15 -16 -17 -17 -18 -19 -19 -20 -20 -20 -20 -20 -20 -21 -21 -21 -21 -21 -22 -22 -22
Height
5893 5894 5897 5899 5900 5905 5908 5911 5912 5915 5917 5919 5921 5923 5924 5926 5928 5929 5930 5930 5929 5929 5928 5928 5927 5926 5924 5925 5925 5925 5924 5923 5921 5922 5920 5917 5916 5916 5914 5912 5910 5908 5908
5888 5891 5891 5894 5896 5898 5902 5905 5907 5910 5911 5914 5916 5918 5920 5921 5923 5924 5925 5924 5925 5925 5925 5924 5923 5921 5920 5920 5921 5921 5919 5918 5917 5917 5915 5914 5912 5910 5909 5908 5906 5904 5903
5880 5884 5888 5888 5891 5892 5895 5898 5902 5904 5907 5909 5910 5912 5914 5916 5918 5919 5920 5921 5921 5920 5919 5918 5916 5916 5916 5916 5915 5915 5915 5914 5912 5911 5911 5910 5907 5905 5905 5904 5903 5902 5900
5875 5878 5881 5885 5886 5887 5887 5891 5895 5898 5900 5903 5905 5907 5909 5912 5912 5912 5913 5914 5914 5913 5913 5913 5913 5913 5912 5912 5910 5910 5909 5909 5907 5906 5905 5905 5903 5901 5899 5899 5898 5896 5895
5864 5868 5873 5874 5876 5878 5880 5885 5888 5892 5894 5895 5898 5901 5903 5905 5905 5906 5906 5907 5908 5907 5908 5908 5908 5908 5907 5907 5906 5904 5902 5901 5900 5899 5897 5897 5898 5897 5894 5893 5892 5890 5888
5854 5857 5862 5867 5871 5873 5873 5878 5882 5884 5887 5888 5891 5895 5897 5898 5899 5900 5901 5901 5901 5902 5901 5901 5901 5900 5900 5898 5898 5897 5895 5893 5892 5891 5890 5888 5888 5888 5887 5886 5885 5884 5882
5824 5844 5850 5855 5860 5866 5869 5868 5874 5878 5880 5883 5885 5888 5890 5891 5892 5892 5892 5893 5893 5894 5894 5892 5892 5892 5890 5890 5889 5888 5886 5885 5884 5883 5881 5880 5879 5878 5878 5878 5877 5876 5876
5831 5835 5843 5843 5851 5853 5859 5861 5864 5869 5873 5874 5878 5880 5882 5885 5885 5885 5885 5886 5886 5886 5885 5884 5883 5882 5882 5881 5880 5879 5877 5876 5875 5873 5871 5869 5869 5868 5866 5865 5864 5862 5862
5824 5824 5828 5832 5835 5844 5848 5854 5859 5862 5867 5867 5869 5872 5874 5876 5877 5877 5876 5876 5876 5877 5876 5875 5875 5875 5875 5873 5872 5871 5869 5867 5866 5863 5860 5859 5858 5857 5855 5852 5851 5847 5846
5811 5817 5819 5822 5823 5830 5839 5844 5848 5854 5860 5862 5860 5861 5864 5866 5866 5866 5867 5867 5868 5867 5867 5867 5867 5865 5865 5864 5861 5859 5857 5857 5855 5851 5850 5849 5847 5845 5841 5839 5836 5834 5832
5805 5808 5809 5811 5810 5817 5830 5833 5835 5842 5847 5852 5853 5853 5852 5855 5856 5858 5858 5857 5857 5857 5856 5856 5855 5855 5854 5852 5850 5847 5846 5845 5843 5841 5838 5834 5834 5832 5828 5826 5824 5821 5818
5795 5797 5799 5805 5807 5815 5820 5818 5811 5827 5837 5839 5838 5839 5842 5843 5844 5845 5846 5845 5846 5847 5845 5844 5842 5842 5842 5840 5837 5835 5834 5832 5830 5829 5826 5825 5823 5821 5818 5816 5814 5810 5808
5789 5788 5791 5794 5798 5804 5808 5812 5815 5822 5825 5825 5827 5829 5832 5833 5834 5833 5835 5837 5835 5835 5835 5834 5832 5831 5829 5827 5826 5824 5823 5822 5819 5817 5815 5812 5810 5808 5805 5803 5799 5798 5795
5779 5782 5788 5788 5793 5797 5803 5804 5806 5808 5810 5815 5817 5821 5820 5823 5824 5824 5826 5825 5823 5823 5823 5824 5823 5822 5820 5819 5816 5815 5814 5812 5810 5806 5803 5801 5797 5795 5791 5788 5786 5783 5780
5782 5780 5781 5786 5788 5790 5792 5796 5795 5798 5799 5802 5806 5809 5811 5811 5813 5815 5816 5816 5816 5816 5815 5814 5814 5814 5812 5810 5809 5805 5803 5800 5797 5794 5791 5787 5784 5781 5778 5774 5771 5767 5764
5784 5783 5782 5784 5784 5789 5788 5788 5790 5794 5796 5799 5801 5804 5807 5808 5809 5811 5811 5812 5813 5812 5811 5811 5810 5808 5806 5803 5800 5797 5793 5790 5787 5783 5779 5774 5771 5766 5762 5757 5753 5749 5745
5779 5780 5782 5783 5787 5789 5792 5791 5792 5795 5798 5800 5803 5805 5806 5807 5808 5808 5809 5809 5808 5808 5806 5804 5802 5800 5797 5794 5790 5787 5783 5778 5774 5769 5763 5759 5753 5748 5743 5739 5734 5729 5725
5778 5781 5783 5785 5788 5792 5793 5793 5793 5794 5795 5797 5799 5799 5800 5801 5802 5803 5804 5803 5802 5801 5798 5796 5794 5791 5788 5785 5781 5777 5772 5767 5762 5756 5750 5744 5736 5730 5724 5717 5712 5709 5704
5777 5779 5782 5785 5787 5788 5790 5791 5791 5792 5792 5792 5793 5794 5795 5796 5797 5797 5797 5796 5794 5792 5790 5788 5786 5782 5779 5775 5770 5764 5758 5752 5745 5738 5731 5724 5717 5711 5704 5698 5693 5688 5682
5776 5777 5778 5781 5782 5783 5784 5785 5788 5789 5789 5790 5791 5791 5791 5792 5791 5790 5790 5789 5786 5784 5782 5779 5776 5771 5767 5762 5757 5749 5742 5736 5727 5719 5711 5705 5698 5691 5683 5676 5671 5666 5660
5774 5773 5773 5773 5777 5779 5781 5783 5785 5786 5786 5787 5786 5787 5787 5787 5786 5784 5784 5781 5778 5776 5773 5770 5766 5761 5756 5749 5742 5733 5724 5717 5710 5702 5695 5688 5681 5672 5665 5658 5650 5643 5638
5771 5771 5771 5772 5774 5778 5780 5781 5781 5782 5782 5782 5781 5782 5781 5780 5779 5778 5777 5775 5772 5769 5764 5759 5754 5748 5742 5734 5726 5717 5710 5703 5697 5690 5683 5676 5667 5659 5650 5642 5635 5630 5627
5769 5769 5769 5772 5773 5775 5776 5777 5777 5778 5779 5778 5778 5777 5776 5774 5773 5770 5769 5765 5760 5756 5751 5744 5737 5731 5725 5717 5709 5703 5696 5689 5683 5677 5670 5662 5654 5646 5637 5629 5626 5621 5617
5766 5766 5767 5768 5771 5771 5772 5773 5773 5774 5774 5773 5773 5771 5769 5767 5764 5761 5757 5754 5749 5745 5739 5731 5724 5718 5711 5704 5697 5691 5685 5679 5671 5664 5657 5650 5643 5635 5625 5619 5615 5612 5609
5763 5764 5765 5766 5766 5769 5770 5769 5769 5769 5767 5767 5766 5763 5760 5758 5755 5750 5745 5742 5737 5732 5727 5720 5711 5706 5699 5692 5685 5678 5673 5667 5661 5654 5647 5642 5635 5629 5622 5616 5610 5606 5602
5761 5762 5763 5765 5767 5766 5765 5764 5764 5763 5761 5758 5755 5752 5750 5747 5744 5740 5736 5730 5725 5720 5714 5708 5700 5694 5687 5681 5675 5668 5662 5656 5651 5644 5637 5632 5627 5622 5617 5611 5607 5601 5596
Wind_Speed
25 25 24 22 20 19 19 18 18 18 18 17 17 15 16 16 16 16 16 17 17 17 17 18 18 16 14 11 12 11 13 13 14 13 13 11 13 12 11 12 16 17 17
27 28 28 28 26 23 22 21 20 20 20 19 19 18 18 18 17 19 20 20 20 21 19 16 16 17 19 17 14 15 17 16 16 16 17 16 17 17 14 17 17 18 18
32 31 31 31 29 27 26 26 24 24 23 22 22 22 21 22 22 22 22 22 22 22 21 20 19 20 20 20 21 20 19 21 21 21 21 18 19 22 19 17 16 17 18
38 35 34 33 31 30 29 29 28 27 26 25 26 25 24 23 23 23 24 24 23 23 24 21 21 22 23 24 25 25 26 26 26 27 27 25 24 25 25 21 20 20 21
44 40 39 39 39 37 33 30 29 29 30 29 28 27 25 25 26 25 26 25 24 23 24 25 25 26 27 28 29 29 31 32 33 32 33 33 29 27 28 26 24 24 22
47 43 45 41 41 39 37 33 32 32 32 30 29 28 27 28 28 27 28 28 28 28 29 29 29 31 30 29 29 32 33 35 35 35 36 36 35 32 31 31 31 30 30
45 46 48 43 44 42 40 36 34 34 33 31 29 29 29 29 29 29 29 29 28 30 33 34 33 33 33 33 33 33 32 32 36 38 39 41 38 38 38 35 35 37 36
44 46 59 52 48 46 44 39 37 38 36 34 31 31 31 31 31 31 33 34 37 35 35 36 38 36 35 36 40 39 41 39 40 43 44 46 41 44 43 42 43 44 46
42 41 43 59 53 47 43 43 38 39 40 35 33 35 35 35 34 34 37 39 40 37 37 40 41 43 44 43 44 42 41 44 42 40 43 45 47 49 51 51 51 54 54
31 42 42 40 52 42 42 38 35 39 42 39 34 35 36 38 39 41 37 39 42 43 41 46 43 42 45 46 49 51 51 46 43 44 45 46 45 44 50 52 51 52 55
36 39 33 39 25 45 39 39 45 45 43 44 40 38 40 44 41 44 42 42 44 42 46 47 48 46 45 45 42 41 43 42 41 44 47 51 51 51 47 48 51 58 60
22 23 26 47 30 34 36 37 32 43 47 47 48 33 32 34 41 39 41 42 42 44 44 44 44 41 44 42 40 40 41 40 42 44 43 42 40 43 42 35 36 41 42
26 26 23 24 37 36 33 37 40 48 51 36 42 45 45 44 40 36 33 35 39 42 39 36 33 33 34 36 34 35 40 41 42 39 36 31 30 33 35 40 42 47 44
14 35 38 38 33 31 35 42 40 37 39 44 43 46 45 45 41 41 41 40 37 27 26 30 29 26 23 25 27 28 32 31 39 45 44 44 47 47 51 51 53 52 52
9 14 20 25 25 31 44 46 41 43 30 25 19 13 10 15 9 9 15 14 14 15 19 22 27 31 33 35 36 36 37 38 38 38 40 42 44 49 52 51 50 52 53
7 2 9 11 8 10 17 10 8 10 5 9 10 10 11 9 10 12 14 14 17 17 19 21 23 25 27 28 30 33 36 39 42 45 47 48 49 51 53 55 56 56 58
8 6 8 10 7 11 9 10 10 7 4 2 2 4 5 7 9 12 14 14 14 14 16 19 24 27 29 30 30 32 36 40 44 48 52 56 59 61 62 63 64 65 66
4 5 5 6 6 3 4 4 3 3 5 6 9 9 10 9 7 7 9 11 15 18 21 24 27 30 31 31 35 43 49 50 52 54 57 61 64 67 67 68 69 69 69
6 7 5 3 4 4 7 9 11 12 12 11 9 7 6 7 9 12 14 15 18 22 24 27 32 36 39 42 46 51 52 52 54 57 61 62 61 61 62 64 65 66 67
8 8 9 8 9 10 11 11 10 9 8 8 8 8 10 12 12 13 16 20 23 26 28 34 39 41 43 46 48 49 51 55 57 56 56 56 58 61 64 65 66 68 70
9 10 10 9 8 7 7 6 6 7 8 9 11 12 12 13 16 19 21 24 27 31 34 37 39 41 45 48 51 54 57 57 53 52 53 55 56 60 64 67 68 66 61
12 12 11 11 10 8 6 6 7 9 11 11 11 13 16 20 21 23 25 28 30 34 37 40 42 46 50 52 55 54 51 48 48 48 48 51 54 52 52 52 47 47 45
13 12 11 10 8 6 7 7 7 8 10 13 16 19 21 23 24 27 28 29 34 36 40 44 46 48 50 50 48 46 45 45 45 45 46 42 43 46 48 44 40 41 43
11 9 9 8 7 7 6 5 5 7 10 13 16 19 21 24 27 29 31 34 37 39 43 44 45 49 46 43 43 42 43 42 43 43 42 41 40 44 41 36 36 38 41
12 12 11 9 7 6 5 4 5 8 12 15 18 20 23 27 30 31 33 36 40 43 45 44 44 46 42 40 40 40 41 41 41 40 36 36 33 32 26 24 25 29 31
14 12 11 11 10 9 9 10 12 15 19 23 25 27 29 31 33 35 36 38 41 44 44 42 41 42 41 40 39 40 40 40 39 38 34 34 30 29 32 32 29 30 26
Wind_Direction
221 215 210 212 211 221 227 224 222 224 230 234 236 236 242 248 249 250 256 262 268 274 283 286 289 293 297 298 297 295 289 290 294 293 292 291 293 300 303 292 290 289 292
222 225 218 214 213 213 231 233 235 233 235 239 243 244 247 251 255 257 266 271 274 273 267 271 279 290 291 289 286 290 293 294 291 288 293 290 289 288 285 287 279 287 283
225 224 229 220 216 213 220 229 229 233 233 240 244 249 254 252 255 257 259 263 263 268 269 275 282 282 278 281 285 285 287 287 286 286 286 289 286 287 288 294 283 288 291
235 225 225 228 218 217 218 228 230 233 236 233 236 238 243 248 251 254 261 266 271 265 268 274 281 282 283 284 286 288 285 283 284 286 286 286 288 290 285 278 272 275 274
225 225 228 226 222 217 216 221 229 234 234 235 237 241 246 249 253 259 266 273 275 279 276 273 271 274 274 278 281 283 284 284 283 283 285 283 282 280 278 276 270 275 274
220 224 229 228 233 227 220 220 228 233 237 236 237 244 247 251 257 262 267 269 270 270 272 273 274 275 275 275 283 285 284 282 285 284 285 287 287 279 272 276 274 271 271
236 229 234 224 232 236 232 223 229 235 236 240 240 243 248 254 260 263 267 269 271 275 277 274 269 273 272 271 286 290 288 284 280 283 286 286 286 283 281 278 276 274 273
253 243 229 225 232 229 235 231 229 237 240 240 244 249 253 256 254 256 264 265 272 272 277 279 278 271 274 279 279 283 277 286 284 281 279 282 282 283 283 284 280 281 280
251 238 243 230 232 225 228 232 236 240 244 244 248 250 253 253 257 259 260 264 266 268 272 273 279 278 278 277 282 280 280 281 286 280 276 278 282 280 281 282 280 282 283
248 253 239 244 222 217 226 228 234 236 246 248 242 244 246 250 250 256 258 266 268 269 273 273 274 280 278 284 285 284 282 279 277 276 279 276 277 284 284 288 290 289 288
250 240 245 247 217 213 224 229 228 230 237 241 242 249 253 249 250 259 265 265 267 267 272 273 271 280 283 287 287 283 284 286 284 283 282 280 280 283 284 284 279 280 280
235 239 245 260 248 230 236 230 213 230 237 238 240 255 252 253 264 276 273 270 272 272 272 274 277 281 283 290 289 289 288 287 285 283 280 279 275 280 269 274 270 271 271
198 205 190 215 224 226 228 232 232 235 234 250 247 257 267 261 271 272 263 263 266 274 273 274 270 272 277 280 282 289 288 286 275 270 275 272 269 267 273 284 285 293 296
225 197 206 232 231 223 228 225 219 227 224 239 255 260 255 259 261 261 256 262 258 264 263 263 263 273 295 299 310 310 311 308 290 281 278 284 286 299 298 299 298 297 292
246 222 202 206 207 217 225 237 234 244 235 222 213 213 219 230 234 256 258 265 277 305 328 329 322 318 314 313 310 308 307 304 304 301 299 295 292 293 291 287 283 282 280
278 29 135 146 145 166 186 167 161 178 104 65 51 41 17 9 349 334 328 316 308 299 296 293 291 292 295 297 299 300 302 303 301 300 297 295 292 289 288 288 286 284 281
228 261 129 110 87 79 56 78 82 84 64 26 303 281 280 280 261 258 264 266 270 276 287 294 298 299 300 302 305 307 306 304 302 299 296 294 292 290 289 286 283 281 278
82 79 95 94 93 26 5 342 295 244 237 249 256 257 253 238 240 253 271 283 294 300 303 305 306 306 302 297 298 302 305 300 301 301 297 291 288 285 282 279 278 277 278
204 168 160 188 192 208 222 235 234 234 236 235 225 212 227 253 273 285 294 301 306 309 314 315 312 309 306 300 297 298 301 301 302 299 296 292 290 289 287 286 285 285 284
189 188 183 203 213 215 221 226 214 198 203 221 230 244 265 277 284 292 300 307 312 314 314 314 313 310 309 309 306 307 309 313 310 302 297 295 294 293 293 292 289 288 286
215 210 210 214 235 197 175 193 213 227 240 252 264 273 285 294 295 299 302 309 314 314 309 309 313 311 311 314 313 313 316 315 304 298 299 300 300 298 296 293 292 293 295
225 227 210 172 178 193 200 223 254 271 277 281 286 290 296 299 302 302 299 298 297 301 302 304 310 314 318 318 318 320 316 305 302 303 304 303 304 305 306 307 301 300 290
197 184 177 188 199 212 235 248 263 272 285 293 298 299 298 296 294 294 294 297 302 304 309 313 317 320 322 321 321 316 312 311 310 308 308 311 316 315 314 306 300 290 312
202 203 204 199 210 216 230 249 276 296 299 299 297 294 292 292 293 293 298 306 310 311 315 319 319 321 321 319 318 315 314 314 313 314 313 313 318 324 321 314 303 300 302
224 215 201 207 204 213 228 272 309 323 324 320 315 310 301 297 297 300 305 310 314 316 320 320 316 320 321 317 316 316 317 317 315 316 314 312 314 322 332 329 318 306 304
218 218 216 215 224 245 271 287 299 308 315 317 317 314 309 305 304 305 308 312 316 319 320 317 315 318 318 316 314 315 318 319 317 315 317 312 309 311 309 313 322 320 314